Air Resources Laboratory banner image
Air Resources Laboratory web site National Oceanic and Atmospheric Administration (NOAA)

id roundup


Office: BOI

ASUS45 KBOI 211810
RWRID

IDAHO REGIONAL WEATHER ROUNDUP
NATIONAL WEATHER SERVICE BOISE ID
1100 AM MST WED FEB 21 2018

NOTE: "FAIR" INDICATES FEW OR NO CLOUDS BELOW 12000 FEET
WITH NO SIGNIFICANT WEATHER AND/OR OBSTRUCTIONS TO VISIBILITY

IDZ012-014-211900-
SOUTHWEST IDAHO


CITY           SKY/WX    TMP DP  RH WIND       PRES   REMARKS
BOISE          PTSUNNY   31   6  35 E6        30.17R WCI  25
CALDWELL       CLOUDY    28  10  46 MISG      30.21S
MOUNTAIN HOME  FAIR      29   7  39 SE20      30.16F WCI  16
$$

IDZ016-017-211900-
SOUTHCENTRAL IDAHO


CITY           SKY/WX    TMP DP  RH WIND       PRES   REMARKS
BURLEY         FAIR      21   8  57 E5        30.12F WCI  15
JEROME         FAIR      26   8  46 E12       30.14S WCI  16
TWIN FALLS     FAIR      22  11  62 CALM      30.13S
$$

IDZ019>023-211900-
SOUTHEAST IDAHO


CITY           SKY/WX    TMP DP  RH WIND       PRES   REMARKS
IDAHO FALLS    FAIR      23   7  50 S14       30.13F WCI  11
POCATELLO      FAIR      25  11  55 CALM      30.14F
REXBURG        FAIR      21   7  54 SW12      30.11F WCI   9
$$

IDZ006-010-011-018-031-032-211900-
CENTRAL IDAHO MOUNTAINS


CITY           SKY/WX    TMP DP  RH WIND       PRES   REMARKS
MCCALL         LGT SNOW  15   8  73 CALM      30.04S
HAILEY         MOSUNNY   16   0  48 NW12      30.10F WCI   3
STANLEY          N/A      3  -5  69 N6        29.99F WCI  -8
SALMON         CLOUDY    20  10  65 VRB5      30.14F WCI  13
CHALLIS        CLOUDY    17  -1  45 N3        30.06F
$$

IDZ002-004-006-007-026-211900-
NORTHERN IDAHO


CITY           SKY/WX    TMP DP  RH WIND       PRES   REMARKS
LEWISTON       CLOUDY    25  15  66 CALM      30.29F
LOWELL           N/A     24  11  57 VRB3      30.33S
COEUR D'ALENE  FAIR      19  12  74 CALM      30.25S
MULLAN PASS    FAIR       5   3  91 SW6       29.92S WCI  -6
$$


ASUS65 KBOI 211831
RTPBOI

Max/Min Temperature and Precipitation Table for Southwest Idaho and
Southeast Oregon
National Weather Service Boise ID
1120 AM MST Wed Feb 21 2018

.BR BOI 0221 MS DH00/TX/DH11/TAIRZP/PPD
:
:...Full-time stations in Mountain Timezone...
:
:                                   MIN
:                             MAX   TEMP
:                            TEMP   SO FAR     24 HR
:ID    STATION        ELEV   YDAY   THIS AM    PCPN
BOI  : Boise          2868 :   28  /   22   /  0.00
EUL  : Caldwell       2427 :   30  /   21   /  0.00
JER  : Jerome Airport 4048 :   24  /   13   /  0.00
MYL  : McCall         5020 :   11  /    7   /  0.09
MUO  : Mtn Home AFB   2995 :   27  /   17   /  0.00
ONO  : Ontario OR     2193 :   32  /    M   /  0.00
REO  : Rome OR        4050 :   31  /   13   /  0.00
TWF  : Twin Falls     4188 :   23  /    7   /  0.00
.END


.BR BOI 0221 PS DH00/TX/DH10/TAIRZP/PPD/SD
:
:...Full-time stations in Pacific Timezone...
:
:                                   MIN
:                             MAX   TEMP
:                            TEMP   SO FAR     24 HR
:ID    STATION        ELEV   YDAY   THIS AM    PCPN
BKE  : Baker City OR  3369 :   29  /   15   /     T
BNO  : Burns OR       4170 :   27  /   19   /  0.04
.END


.BR BOI 0221 M DH07/TAIRZX/TAIRZN/PPDRZZ/SDIRZZ
:
:...Cooperative weather observation sites in Mountain Timezone...
:
:                                      24HR  24HR         24HR
:                               OBS    MAX   MIN   24HR   SNOW  SNOW
:ID        LOCATION             TIME   TEMP  TEMP  PCPN   FALL  DEPTH
HOMI1: Homedale        2230 : DH0800 /  33 /  23 / 0.00 /  0.0 /   0
MHSI1: Murphy Hot Sprg 5160 : DH0700 /  24 /   0 / 0.00 /  0.0 /   1
OWYO3: Owyhee Dam OR   2400 : DH0800 /  35 /  11 / 0.00 /  0.0 /   0
YPNI1: Yellowpine      5050 : DH1000 /  22 /  -2 /   T  /  0.2 /  10
.END


These data are preliminary and have not undergone final quality
control by the National Climatic Data Center /NCDC/. Therefore...
these data are subject to revision.  Final and certified climate data
can be accessed at www.ncdc.noaa.gov.

$$



Office: LKN ASUS65 KLKN 211318 RTPLKN Regional Temperature And Precipitation Table...Early Morning National Weather Service Elko NV 518 AM PST Wed Feb 21 2018 ***Automated Airport Stations*** Values represent lows over the last 12 hours... Highs over the last 24 hours and precipitation over the last 24 hours...ending at 4 AM PST/5 AM PDT today. .BR LKN 0221 P DH04/TAIRZX/DH04/TAIRZP/PPDRZZ/SFDRZZ/SDIRZZ : :ID Station Elev / Max / Min / Pcpn / :.................................................................... : EKO : Elko ASOS 5074 : 24 / 6 / 0.00 / ELY : Ely ASOS 6262 : 25 / 6 / T / P68 : Eureka ASOS 5936 : 26 / 2 / 0.00 / TPH : Tonopah ASOS 5395 : 33 / 22 / 0.00 / ENV : Wendover AWOS 4236 : 28 / 15 / 0.00 / WMC : Winnemucca ASOS 4314 : 32 / 17 / 0.00 / .END ***Manual synoptic reporting stations in north and central Nevada*** Values reflect the previous 24 hours ending at 4 AM PST/5 AM PDT *Snow stations may only report during periods of snowfall* .BR LKN 0221 P DH04/TAIRZX/TAIRZN/PPDRZZ/SFDRZZ/SDIRZZ : Snow Snow :ID Station Elev Max / Min / Pcpn / Fall / Dpth :.................................................................... : TLKN2 : Elko NWS Office 5235 : 24 / 6 / T / T / T TELN2 : Ely Snow 6487 : M / M / 0.00 / 0.0 / T TWIN2 : Winnemucca Snow 4355 : M / M / 0.00 / 0.0 / 0 .END ***Cooperative stations in north and central Nevada*** Values reflect the previous 24 hours Report time as indicated .BR LKN 0221 P DH04/TAIRZX/TAIRZN/PPDRZZ/SFDRZZ/SDIRZZ : Snow Snow :ID Station Elev Time / Max / Min / Pcpn / Fall / Dpth :.................................................................... : MOMN2 : Moorman Ranch 6539 5 AM: 23 / 4 / 0.00 / 0.0 / 0 .END M = Missing data T = Trace amounts ASOS = Automated Surface Observing System AWOS = Automated Weather Observation System NWS = National Weather Service DCP = Data Collection Platform These data are preliminary and have not undergone final quality control (QC) by NCEI. Therefore, these data are subject to revision. Final and certified data can be accessed at the National Centers For Environmental Information (NCEI) - www.ncei.noaa.gov $$